This is the latest recevied weather packets stored in our database for station/object K0SNA. If no packets are shown the sender has not sent any weather packets the latest 10 day(s).
| Time | Temp. | Humidity | Pressure | Rain* | Wind** | Luminosity | Snow |
|---|---|---|---|---|---|---|---|
| 1778155725 | 0.56° C | 87% | 1014.1 hPa | 0 mm | - | 42 W/m² | - |
| 1778155421 | 0° C | 88% | 1014.1 hPa | 0 mm | - | 35 W/m² | - |
| 1778155117 | -0.56° C | 89% | 1013.9 hPa | 0 mm | - | 34 W/m² | - |
| 1778154813 | -1.11° C | 90% | 1014.1 hPa | 0 mm | - | 27 W/m² | - |
| 1778154508 | -1.11° C | 90% | 1014.1 hPa | 0 mm | - | 22 W/m² | - |
| 1778154206 | -1.11° C | 90% | 1014 hPa | 0 mm | - | 18 W/m² | - |
| 1778153904 | -1.67° C | 90% | 1014 hPa | 0 mm | - | 17 W/m² | - |
| 1778153601 | -1.67° C | 90% | 1013.8 hPa | 0 mm | - | 16 W/m² | - |
| 1778153298 | -1.67° C | 90% | 1013.9 hPa | 0 mm | - | 14 W/m² | - |
| 1778152995 | -1.67° C | 90% | 1014 hPa | 0 mm | - | 12 W/m² | - |
| 1778152693 | -2.22° C | 90% | 1013.9 hPa | 0 mm | - | 9 W/m² | - |
| 1778152389 | -2.22° C | 90% | 1013.9 hPa | 0 mm | - | 7 W/m² | - |
| 1778152085 | -2.22° C | 90% | 1013.9 hPa | 0 mm | - | 5 W/m² | - |
| 1778151781 | -2.22° C | 90% | 1014 hPa | 0 mm | - | 4 W/m² | - |
| 1778151479 | -1.67° C | 90% | 1013.8 hPa | 0 mm | - | 3 W/m² | - |
| 1778151175 | -1.67° C | 90% | 1013.9 hPa | 0 mm | - | 2 W/m² | - |
| 1778150872 | -1.67° C | 90% | 1013.9 hPa | 0 mm | - | 1 W/m² | - |
| 1778150568 | -1.67° C | 89% | 1013.9 hPa | 0 mm | - | 0 W/m² | - |
| 1778150264 | -1.67° C | 89% | 1013.8 hPa | 0 mm | - | 0 W/m² | - |
| 1778149961 | -2.22° C | 89% | 1013.9 hPa | 0 mm | - | 0 W/m² | - |
| 1778149657 | -1.67° C | 89% | 1013.9 hPa | 0 mm | - | 0 W/m² | - |
| 1778149354 | -1.67° C | 88% | 1013.8 hPa | 0 mm | - | 0 W/m² | - |
| 1778149050 | -1.67° C | 88% | 1013.8 hPa | 0 mm | - | 0 W/m² | - |
| 1778148745 | -1.67° C | 88% | 1013.9 hPa | 0 mm | - | 0 W/m² | - |
| 1778148443 | -1.67° C | 87% | 1014 hPa | 0 mm | - | 0 W/m² | - |
* Rain latest hour (hover to see other rain measurements)
** Current wind speed in m/s (hover to see current wind gust speed)